• In Austria
  • List of Countries
  • For 7 days
  • Water Temperature
  • Satellite Maps
  • Weather Map
  • News
  • Weather Widgets
  • user-avatar
    Login

    Hourly Weather Salta

    Today, 19 December, Tuesday

    Time Temperature Precipitation Wind Pressure Humidity
    00:00 +18°C° 0 mm 0 mps 652 mmHg 80%
    01:00 +18°C° 0 mm 0 mps 652 mmHg 81%
    02:00 +18°C° 0 mm 0 mps 651 mmHg 83%
    03:00 +20°C° 0.1 mm 1 mps 651 mmHg 84%
    04:00 +19°C° 0.1 mm 1 mps 651 mmHg 84%
    05:00 +19°C° 0.1 mm 1 mps 650 mmHg 85%
    06:00 +21°C° 0.4 mm 1 mps 651 mmHg 79%
    07:00 +22°C° 0.4 mm 1 mps 652 mmHg 73%
    08:00 +23°C° 0.4 mm 1 mps 652 mmHg 67%
    09:00 +24°C° 0.7 mm 1 mps 652 mmHg 65%
    10:00 +25°C° 0.7 mm 2 mps 652 mmHg 62%
    11:00 +26°C° 0.7 mm 2 mps 652 mmHg 60%
    12:00 +26°C° 0.7 mm 2 mps 652 mmHg 60%
    13:00 +26°C° 0.7 mm 2 mps 651 mmHg 60%
    14:00 +26°C° 0.7 mm 2 mps 651 mmHg 60%
    15:00 +25°C° 1.3 mm 2 mps 650 mmHg 63%
    16:00 +25°C° 1.3 mm 2 mps 650 mmHg 65%
    17:00 +24°C° 1.3 mm 2 mps 649 mmHg 68%
    18:00 +23°C° 1.3 mm 1 mps 650 mmHg 72%
    19:00 +22°C° 1.3 mm 1 mps 650 mmHg 76%
    20:00 +21°C° 1.3 mm 1 mps 650 mmHg 80%
    21:00 +21°C° 0.4 mm 1 mps 650 mmHg 80%
    22:00 +21°C° 0.4 mm 1 mps 651 mmHg 79%
    23:00 +21°C° 0.4 mm 1 mps 651 mmHg 79%

    Tomorrow, 20 December, Wednesday

    Time Temperature Precipitation Wind Pressure Humidity
    00:00 +21°C° 1.3 mm 1 mps 651 mmHg 79%
    01:00 +21°C° 1.3 mm 1 mps 650 mmHg 80%
    02:00 +21°C° 1.3 mm 1 mps 650 mmHg 80%
    03:00 +21°C° 1.1 mm 1 mps 650 mmHg 80%
    04:00 +21°C° 1.1 mm 1 mps 650 mmHg 80%
    05:00 +21°C° 1.1 mm 1 mps 650 mmHg 80%
    06:00 +22°C° 0.5 mm 1 mps 650 mmHg 76%
    07:00 +22°C° 0.5 mm 1 mps 651 mmHg 73%
    08:00 +23°C° 0.5 mm 1 mps 651 mmHg 70%
    09:00 +24°C° 0.3 mm 1 mps 651 mmHg 66%
    10:00 +25°C° 0.3 mm 1 mps 651 mmHg 63%
    11:00 +26°C° 0.3 mm 2 mps 651 mmHg 60%
    12:00 +27°C° 0.1 mm 2 mps 651 mmHg 57%
    13:00 +28°C° 0.1 mm 2 mps 650 mmHg 54%
    14:00 +29°C° 0.1 mm 3 mps 650 mmHg 52%
    15:00 +28°C° 0.1 mm 3 mps 649 mmHg 54%
    16:00 +27°C° 0.1 mm 3 mps 649 mmHg 57%
    17:00 +27°C° 0.1 mm 3 mps 648 mmHg 60%
    18:00 +26°C° 0 mm 2 mps 648 mmHg 65%
    19:00 +24°C° 0 mm 2 mps 648 mmHg 71%
    20:00 +23°C° 0 mm 1 mps 648 mmHg 76%
    21:00 +23°C° 0.1 mm 1 mps 648 mmHg 76%
    22:00 +22°C° 0.1 mm 1 mps 649 mmHg 76%
    23:00 +22°C° 0.1 mm 1 mps 649 mmHg 76%

    Day after tomorrow, 21 December, Thursday

    Time Temperature Precipitation Wind Pressure Humidity
    00:00 +22°C° 0 mm 1 mps 648 mmHg 78%
    01:00 +22°C° 0 mm 1 mps 648 mmHg 79%
    02:00 +21°C° 0 mm 1 mps 647 mmHg 80%
    03:00 +21°C° 0 mm 1 mps 647 mmHg 80%
    04:00 +21°C° 0 mm 1 mps 647 mmHg 80%
    05:00 +21°C° 0 mm 1 mps 647 mmHg 80%
    06:00 +23°C° 0 mm 1 mps 648 mmHg 72%
    07:00 +24°C° 0 mm 1 mps 649 mmHg 64%
    08:00 +26°C° 0 mm 1 mps 650 mmHg 56%
    09:00 +28°C° 0 mm 2 mps 650 mmHg 53%
    10:00 +29°C° 0 mm 2 mps 650 mmHg 49%
    11:00 +31°C° 0 mm 3 mps 651 mmHg 45%
    12:00 +31°C° 0.3 mm 3 mps 650 mmHg 45%
    13:00 +31°C° 0.3 mm 3 mps 650 mmHg 46%
    14:00 +33°C° 0.3 mm 4 mps 649 mmHg 46%
    15:00 +30°C° 1 mm 3 mps 649 mmHg 52%
    16:00 +29°C° 1 mm 3 mps 648 mmHg 59%
    17:00 +28°C° 1 mm 3 mps 647 mmHg 65%
    18:00 +26°C° 1.5 mm 2 mps 648 mmHg 72%
    19:00 +25°C° 1.5 mm 2 mps 648 mmHg 79%
    20:00 +23°C° 1.5 mm 1 mps 648 mmHg 85%
    21:00 +23°C° 0.6 mm 1 mps 648 mmHg 85%
    22:00 +22°C° 0.6 mm 1 mps 649 mmHg 85%
    23:00 +22°C° 0.6 mm 1 mps 649 mmHg 85%

    22 December, Friday

    Time Temperature Precipitation Wind Pressure Humidity
    00:00 +22°C° 0.2 mm 1 mps 648 mmHg 84%
    01:00 +22°C° 0.2 mm 1 mps 648 mmHg 83%
    02:00 +22°C° 0.2 mm 1 mps 647 mmHg 82%
    03:00 +20°C° 0.1 mm 0 mps 647 mmHg 82%
    04:00 +19°C° 0.1 mm 0 mps 647 mmHg 82%
    05:00 +19°C° 0.1 mm 0 mps 647 mmHg 82%
    06:00 +21°C° 0 mm 0 mps 648 mmHg 76%
    07:00 +24°C° 0 mm 1 mps 648 mmHg 70%
    08:00 +26°C° 0 mm 1 mps 649 mmHg 64%
    09:00 +28°C° 0 mm 1 mps 649 mmHg 57%
    10:00 +29°C° 0 mm 2 mps 649 mmHg 51%
    11:00 +31°C° 0 mm 2 mps 649 mmHg 45%
    12:00 +31°C° 0.1 mm 3 mps 648 mmHg 45%
    13:00 +33°C° 0.1 mm 3 mps 648 mmHg 44%
    14:00 +33°C° 0.1 mm 3 mps 647 mmHg 44%
    15:00 +31°C° 0.1 mm 3 mps 647 mmHg 48%
    16:00 +30°C° 0.1 mm 3 mps 647 mmHg 53%
    17:00 +29°C° 0.1 mm 3 mps 646 mmHg 57%
    18:00 +28°C° 0.9 mm 2 mps 646 mmHg 65%
    19:00 +26°C° 0.9 mm 2 mps 646 mmHg 74%
    20:00 +24°C° 0.9 mm 1 mps 647 mmHg 83%
    21:00 +24°C° 0.9 mm 1 mps 647 mmHg 83%
    22:00 +23°C° 0.9 mm 1 mps 647 mmHg 84%
    23:00 +23°C° 0.9 mm 1 mps 648 mmHg 84%

    23 December, Saturday

    Time Temperature Precipitation Wind Pressure Humidity
    00:00 +23°C° 0.3 mm 1 mps 647 mmHg 82%
    01:00 +23°C° 0.3 mm 1 mps 647 mmHg 80%
    02:00 +23°C° 0.3 mm 1 mps 647 mmHg 79%
    03:00 +23°C° 0.1 mm 1 mps 647 mmHg 79%
    04:00 +23°C° 0.1 mm 1 mps 647 mmHg 79%
    05:00 +21°C° 0.1 mm 2 mps 647 mmHg 79%
    06:00 +23°C° 0.3 mm 2 mps 648 mmHg 77%
    07:00 +22°C° 0.3 mm 3 mps 649 mmHg 76%
    08:00 +24°C° 0.3 mm 3 mps 650 mmHg 74%
    09:00 +22°C° 1.1 mm 3 mps 650 mmHg 77%
    10:00 +22°C° 1.1 mm 3 mps 650 mmHg 80%
    11:00 +21°C° 1.1 mm 3 mps 650 mmHg 83%
    12:00 +21°C° 1.7 mm 3 mps 650 mmHg 85%
    13:00 +20°C° 1.7 mm 3 mps 649 mmHg 87%
    14:00 +19°C° 1.7 mm 3 mps 649 mmHg 89%
    15:00 +20°C° 0.4 mm 3 mps 649 mmHg 85%
    16:00 +20°C° 0.4 mm 2 mps 649 mmHg 81%
    17:00 +21°C° 0.4 mm 2 mps 649 mmHg 78%
    18:00 +20°C° 0.3 mm 2 mps 649 mmHg 80%
    19:00 +20°C° 0.3 mm 1 mps 649 mmHg 82%
    20:00 +20°C° 0.3 mm 1 mps 649 mmHg 84%
    21:00 +20°C° 0 mm 1 mps 649 mmHg 83%
    22:00 +19°C° 0 mm 1 mps 650 mmHg 83%
    23:00 +19°C° 0 mm 1 mps 650 mmHg 82%

    24 December, Sunday

    Time Temperature Precipitation Wind Pressure Humidity
    00:00 +19°C° 0 mm 1 mps 649 mmHg 82%
    01:00 +19°C° 0 mm 1 mps 649 mmHg 82%
    02:00 +19°C° 0 mm 1 mps 649 mmHg 81%
    03:00 +19°C° 0 mm 1 mps 649 mmHg 82%
    04:00 +18°C° 0 mm 1 mps 649 mmHg 83%
    05:00 +18°C° 0 mm 1 mps 648 mmHg 84%
    06:00 +20°C° 0 mm 1 mps 649 mmHg 79%
    07:00 +21°C° 0 mm 1 mps 650 mmHg 75%
    08:00 +21°C° 0 mm 2 mps 651 mmHg 70%
    09:00 +23°C° 0 mm 2 mps 651 mmHg 66%
    10:00 +25°C° 0 mm 2 mps 651 mmHg 62%
    11:00 +26°C° 0 mm 3 mps 651 mmHg 58%
    12:00 +26°C° 0.1 mm 3 mps 650 mmHg 58%
    13:00 +26°C° 0.1 mm 3 mps 650 mmHg 58%
    14:00 +27°C° 0.1 mm 3 mps 649 mmHg 59%
    15:00 +26°C° 0.2 mm 3 mps 649 mmHg 62%
    16:00 +26°C° 0.2 mm 3 mps 648 mmHg 65%
    17:00 +25°C° 0.2 mm 3 mps 648 mmHg 69%
    18:00 +24°C° 0.5 mm 2 mps 648 mmHg 75%
    19:00 +21°C° 0.5 mm 2 mps 648 mmHg 82%
    20:00 +21°C° 0.5 mm 1 mps 648 mmHg 88%
    21:00 +21°C° 0.2 mm 1 mps 648 mmHg 89%
    22:00 +20°C° 0.2 mm 1 mps 649 mmHg 89%
    23:00 +20°C° 0.2 mm 1 mps 649 mmHg 89%
    Show more